Time,TemperatureF,DewpointF,PressureIn,WindDirection,WindDirectionDegrees,WindSpeedMPH,WindSpeedGustMPH,Humidity,HourlyPrecipIn,Conditions,Clouds,dailyrainin,SoftwareType,DateUTC
2013-07-11 00:02:00,79.0,75.0,29.93,SSW,199,1.0,3.0,88,0.00,,,0.00,,2013-07-11 05:02:00,
2013-07-11 00:12:00,79.0,75.0,29.93,South,189,1.0,3.0,87,0.00,,,0.00,,2013-07-11 05:12:00,
2013-07-11 00:22:00,79.0,75.0,29.93,South,189,1.0,3.0,87,0.00,,,0.00,,2013-07-11 05:22:00,
2013-07-11 00:32:00,78.0,74.0,29.93,South,190,0.0,3.0,87,0.00,,,0.00,,2013-07-11 05:32:00,
2013-07-11 00:43:00,78.0,74.0,29.92,South,185,1.0,2.0,87,0.00,,,0.00,,2013-07-11 05:43:00,
2013-07-11 00:52:00,78.0,74.0,29.92,South,185,1.0,2.0,87,0.00,,,0.00,,2013-07-11 05:52:00,
2013-07-11 01:01:00,78.0,74.0,29.92,South,186,0.0,3.0,87,0.00,,,0.00,,2013-07-11 06:01:00,
2013-07-11 01:12:00,78.0,73.0,29.93,South,186,0.0,2.0,86,0.00,,,0.00,,2013-07-11 06:12:00,
2013-07-11 01:22:00,78.0,73.0,29.93,South,186,0.0,2.0,86,0.00,,,0.00,,2013-07-11 06:22:00,
2013-07-11 01:32:00,78.0,73.0,29.93,South,186,1.0,3.0,86,0.00,,,0.00,,2013-07-11 06:32:00,
2013-07-11 01:43:00,78.0,74.0,29.93,South,186,0.0,2.0,87,0.00,,,0.00,,2013-07-11 06:43:00,
2013-07-11 01:52:00,78.0,74.0,29.93,South,186,0.0,2.0,87,0.00,,,0.00,,2013-07-11 06:52:00,
2013-07-11 02:02:00,77.0,73.0,29.92,South,186,0.0,2.0,87,0.00,,,0.00,,2013-07-11 07:02:00,
2013-07-11 02:12:00,77.0,73.0,29.92,South,186,0.0,3.0,88,0.00,,,0.00,,2013-07-11 07:12:00,
2013-07-11 02:22:00,77.0,73.0,29.92,South,186,0.0,3.0,88,0.00,,,0.00,,2013-07-11 07:22:00,
2013-07-11 02:32:00,77.0,73.0,29.92,South,186,0.0,2.0,87,0.00,,,0.00,,2013-07-11 07:32:00,
2013-07-11 02:45:00,77.0,73.0,29.92,SSW,192,1.0,3.0,87,0.00,,,0.00,,2013-07-11 07:45:00,
2013-07-11 02:53:00,77.0,73.0,29.92,SSW,192,1.0,3.0,87,0.00,,,0.00,,2013-07-11 07:53:00,
2013-07-11 03:02:00,77.0,73.0,29.93,SSW,203,0.0,4.0,87,0.00,,,0.00,,2013-07-11 08:02:00,
2013-07-11 03:11:00,78.0,73.0,29.93,South,181,3.0,7.0,86,0.00,,,0.00,,2013-07-11 08:11:00,
2013-07-11 03:22:00,78.0,73.0,29.93,South,181,3.0,7.0,86,0.00,,,0.00,,2013-07-11 08:22:00,
2013-07-11 03:34:00,77.0,73.0,29.93,WSW,253,1.0,5.0,87,0.00,,,0.00,,2013-07-11 08:34:00,
2013-07-11 03:43:00,77.0,73.0,29.93,WSW,240,0.0,2.0,88,0.00,,,0.00,,2013-07-11 08:43:00,
2013-07-11 03:53:00,77.0,73.0,29.93,WSW,240,0.0,2.0,88,0.00,,,0.00,,2013-07-11 08:53:00,
2013-07-11 04:03:00,76.0,73.0,29.93,WSW,240,0.0,0.0,90,0.00,,,0.00,,2013-07-11 09:03:00,
2013-07-11 04:12:00,76.0,73.0,29.93,WSW,240,0.0,2.0,90,0.00,,,0.00,,2013-07-11 09:12:00,
2013-07-11 04:21:00,76.0,73.0,29.93,WSW,240,0.0,2.0,90,0.00,,,0.00,,2013-07-11 09:21:00,
2013-07-11 04:33:00,76.0,73.0,29.93,WSW,240,0.0,1.0,90,0.00,,,0.00,,2013-07-11 09:33:00,
2013-07-11 04:43:00,76.0,73.0,29.93,WSW,240,0.0,2.0,91,0.00,,,0.00,,2013-07-11 09:43:00,
2013-07-11 04:53:00,76.0,73.0,29.93,WSW,240,0.0,2.0,91,0.00,,,0.00,,2013-07-11 09:53:00,
2013-07-11 05:01:00,76.0,73.0,29.94,WSW,240,0.0,2.0,91,0.00,,,0.00,,2013-07-11 10:01:00,
2013-07-11 05:12:00,76.0,74.0,29.93,SSW,200,1.0,4.0,92,0.00,,,0.00,,2013-07-11 10:12:00,
2013-07-11 05:22:00,76.0,74.0,29.93,SSW,200,1.0,4.0,92,0.00,,,0.00,,2013-07-11 10:22:00,
2013-07-11 05:33:00,76.0,73.0,29.93,SW,216,2.0,5.0,91,0.00,,,0.00,,2013-07-11 10:33:00,
2013-07-11 05:43:00,76.0,73.0,29.93,SW,217,1.0,4.0,91,0.00,,,0.00,,2013-07-11 10:43:00,
2013-07-11 05:52:00,76.0,73.0,29.93,SW,217,1.0,4.0,91,0.00,,,0.00,,2013-07-11 10:52:00,
2013-07-11 06:02:00,76.0,73.0,29.93,SSW,204,1.0,4.0,91,0.00,,,0.00,,2013-07-11 11:02:00,
2013-07-11 06:12:00,76.0,74.0,29.93,SSW,204,0.0,2.0,92,0.00,,,0.00,,2013-07-11 11:12:00,
2013-07-11 06:22:00,76.0,74.0,29.93,SSW,204,0.0,2.0,92,0.00,,,0.00,,2013-07-11 11:22:00,
2013-07-11 06:32:00,76.0,74.0,29.93,SSW,192,1.0,2.0,92,0.00,,,0.00,,2013-07-11 11:32:00,
2013-07-11 06:43:00,76.0,74.0,29.93,SSW,192,0.0,0.0,93,0.00,,,0.00,,2013-07-11 11:43:00,
2013-07-11 06:53:00,76.0,74.0,29.93,SSW,192,0.0,0.0,93,0.00,,,0.00,,2013-07-11 11:53:00,
2013-07-11 07:01:00,76.0,74.0,29.94,SW,220,0.0,1.0,93,0.00,,,0.00,,2013-07-11 12:01:00,
2013-07-11 07:12:00,77.0,74.0,29.94,SW,220,0.0,1.0,92,0.00,,,0.00,,2013-07-11 12:12:00,
2013-07-11 07:22:00,77.0,74.0,29.94,SW,220,0.0,1.0,92,0.00,,,0.00,,2013-07-11 12:22:00,
2013-07-11 07:33:00,77.0,74.0,29.94,WNW,300,1.0,3.0,90,0.00,,,0.00,,2013-07-11 12:33:00,
2013-07-11 07:43:00,78.0,75.0,29.95,WSW,247,1.0,4.0,90,0.00,,,0.00,,2013-07-11 12:43:00,
2013-07-11 07:54:00,78.0,75.0,29.95,WSW,247,1.0,4.0,90,0.00,,,0.00,,2013-07-11 12:54:00,
2013-07-11 08:02:00,79.0,75.0,29.95,West,263,1.0,4.0,88,0.00,,,0.00,,2013-07-11 13:02:00,
2013-07-11 08:13:00,80.0,76.0,29.95,WNW,293,2.0,5.0,87,0.00,,,0.00,,2013-07-11 13:13:00,
2013-07-11 08:23:00,80.0,76.0,29.95,WNW,293,2.0,5.0,87,0.00,,,0.00,,2013-07-11 13:23:00,
2013-07-11 08:34:00,82.0,76.0,29.94,NW,310,0.0,4.0,83,0.00,,,0.00,,2013-07-11 13:34:00,
2013-07-11 08:45:00,83.0,76.0,29.94,NW,313,0.0,2.0,80,0.00,,,0.00,,2013-07-11 13:45:00,
2013-07-11 09:05:00,83.0,75.0,29.94,SE,129,0.0,3.0,76,0.00,,,0.00,,2013-07-11 14:05:00,
2013-07-11 09:15:00,84.0,75.0,29.94,South,169,1.0,4.0,74,0.00,,,0.00,,2013-07-11 14:15:00,
2013-07-11 09:23:00,84.0,75.0,29.94,South,169,1.0,4.0,74,0.00,,,0.00,,2013-07-11 14:23:00,
2013-07-11 09:35:00,84.0,76.0,29.94,South,188,0.0,5.0,76,0.00,,,0.00,,2013-07-11 14:35:00,
2013-07-11 09:45:00,84.0,76.0,29.94,SSW,209,1.0,3.0,77,0.00,,,0.00,,2013-07-11 14:45:00,
2013-07-11 09:54:00,84.0,76.0,29.94,SSW,209,1.0,3.0,77,0.00,,,0.00,,2013-07-11 14:54:00,
2013-07-11 10:13:00,85.0,76.0,29.95,SSW,205,1.0,5.0,74,0.00,,,0.00,,2013-07-11 15:13:00,
2013-07-11 10:24:00,85.0,76.0,29.95,SSW,205,1.0,5.0,74,0.00,,,0.00,,2013-07-11 15:24:00,
2013-07-11 10:37:00,85.0,76.0,29.96,SW,225,2.0,6.0,74,0.00,,,0.00,,2013-07-11 15:37:00,
2013-07-11 10:45:00,85.0,76.0,29.95,SSW,201,2.0,5.0,74,0.00,,,0.00,,2013-07-11 15:45:00,
2013-07-11 10:55:00,85.0,76.0,29.95,SSW,201,2.0,5.0,74,0.00,,,0.00,,2013-07-11 15:55:00,
2013-07-11 11:14:00,87.0,77.0,29.95,SW,232,2.0,8.0,73,0.00,,,0.00,,2013-07-11 16:14:00,
2013-07-11 11:35:00,87.0,76.0,29.94,WSW,238,2.0,7.0,71,0.00,,,0.00,,2013-07-11 16:35:00,
2013-07-11 11:46:00,88.0,77.0,29.95,SSW,192,3.0,9.0,70,0.00,,,0.00,,2013-07-11 16:46:00,
2013-07-11 11:54:00,88.0,77.0,29.95,SSW,192,3.0,9.0,70,0.00,,,0.00,,2013-07-11 16:54:00,
2013-07-11 12:14:00,88.0,77.0,29.94,SW,225,5.0,10.0,69,0.00,,,0.00,,2013-07-11 17:14:00,
2013-07-11 12:26:00,88.0,77.0,29.94,SW,225,5.0,10.0,69,0.00,,,0.00,,2013-07-11 17:26:00,
2013-07-11 12:38:00,89.0,79.0,29.94,WSW,245,2.0,8.0,72,0.00,,,0.00,,2013-07-11 17:38:00,
2013-07-11 12:45:00,88.0,78.0,29.93,WSW,242,4.0,8.0,72,0.00,,,0.00,,2013-07-11 17:45:00,
2013-07-11 12:52:00,88.0,78.0,29.93,WSW,242,4.0,8.0,72,0.00,,,0.00,,2013-07-11 17:52:00,
2013-07-11 13:05:00,89.0,78.0,29.93,SSW,208,4.0,9.0,70,0.00,,,0.00,,2013-07-11 18:05:00,
2013-07-11 13:24:00,89.0,79.0,29.93,West,267,3.0,10.0,72,0.00,,,0.00,,2013-07-11 18:24:00,
2013-07-11 13:35:00,90.0,78.0,29.92,SSW,197,4.0,8.0,68,0.00,,,0.00,,2013-07-11 18:35:00,
2013-07-11 13:45:00,90.0,78.0,29.92,WNW,285,1.0,7.0,69,0.00,,,0.00,,2013-07-11 18:45:00,
2013-07-11 13:54:00,90.0,78.0,29.92,WNW,285,1.0,7.0,69,0.00,,,0.00,,2013-07-11 18:54:00,
2013-07-11 14:04:00,90.0,77.0,29.92,WNW,286,1.0,6.0,66,0.00,,,0.00,,2013-07-11 19:04:00,
2013-07-11 14:13:00,89.0,77.0,29.92,West,267,1.0,6.0,69,0.00,,,0.00,,2013-07-11 19:13:00,
2013-07-11 14:23:00,89.0,77.0,29.92,West,267,1.0,6.0,69,0.00,,,0.00,,2013-07-11 19:23:00,
2013-07-11 14:38:00,88.0,77.0,29.91,WSW,247,1.0,5.0,71,0.00,,,0.00,,2013-07-11 19:38:00,
2013-07-11 17:46:00,77.0,72.0,29.90,SSE,153,4.0,7.0,86,0.00,,,0.57,,2013-07-11 22:46:00,
2013-07-11 17:54:00,77.0,72.0,29.90,SSE,153,4.0,7.0,86,0.00,,,0.57,,2013-07-11 22:54:00,
2013-07-11 18:06:00,78.0,73.0,29.89,SSE,161,5.0,9.0,86,0.00,,,0.57,,2013-07-11 23:06:00,
2013-07-11 18:13:00,78.0,73.0,29.88,South,176,8.0,14.0,84,0.00,,,0.57,,2013-07-11 23:13:00,
2013-07-11 18:25:00,78.0,73.0,29.88,South,176,8.0,14.0,84,0.00,,,0.57,,2013-07-11 23:25:00,
2013-07-11 18:35:00,79.0,73.0,29.89,SSE,161,7.0,14.0,83,0.00,,,0.57,,2013-07-11 23:35:00,
2013-07-11 18:46:00,78.0,72.0,29.88,SSE,159,8.0,16.0,82,0.00,,,0.57,,2013-07-11 23:46:00,
2013-07-11 18:54:00,78.0,72.0,29.88,SSE,159,8.0,16.0,82,0.00,,,0.57,,2013-07-11 23:54:00,
2013-07-11 19:05:00,77.0,72.0,29.88,South,177,4.0,8.0,84,0.00,,,0.57,,2013-07-12 00:05:00,
2013-07-11 19:13:00,77.0,72.0,29.88,SSE,162,3.0,7.0,85,0.00,,,0.57,,2013-07-12 00:13:00,
2013-07-11 19:24:00,77.0,72.0,29.88,SSE,162,3.0,7.0,85,0.00,,,0.57,,2013-07-12 00:24:00,
2013-07-11 19:55:00,76.0,72.0,29.89,SSE,158,1.0,4.0,88,0.00,,,0.57,,2013-07-12 00:55:00,
2013-07-11 20:04:00,76.0,72.0,29.88,SSE,158,0.0,3.0,88,0.00,,,0.57,,2013-07-12 01:04:00,
2013-07-11 20:13:00,75.0,72.0,29.88,SSE,160,2.0,4.0,89,0.00,,,0.57,,2013-07-12 01:13:00,
2013-07-11 20:26:00,75.0,72.0,29.88,SSE,160,2.0,4.0,89,0.00,,,0.57,,2013-07-12 01:26:00,
2013-07-11 20:46:00,74.0,71.0,29.91,SSW,212,1.0,4.0,90,0.00,,,0.57,,2013-07-12 01:46:00,
2013-07-11 20:55:00,74.0,71.0,29.91,SSW,212,1.0,4.0,90,0.00,,,0.57,,2013-07-12 01:55:00,
2013-07-11 21:06:00,74.0,71.0,29.92,SSW,207,0.0,1.0,91,0.00,,,0.57,,2013-07-12 02:06:00,
2013-07-11 21:15:00,74.0,72.0,29.93,SSW,207,0.0,1.0,92,0.00,,,0.57,,2013-07-12 02:15:00,
2013-07-11 21:35:00,74.0,72.0,29.92,SSW,207,0.0,0.0,92,0.00,,,0.57,,2013-07-12 02:35:00,
2013-07-11 21:53:00,74.0,72.0,29.94,North,360,7.0,13.0,93,0.00,,,0.57,,2013-07-12 02:53:00,
2013-07-11 22:03:00,74.0,72.0,29.92,NW,313,1.0,9.0,92,0.00,,,0.57,,2013-07-12 03:03:00,
2013-07-11 22:14:00,74.0,71.0,29.88,SW,216,2.0,4.0,91,0.00,,,0.57,,2013-07-12 03:14:00,
2013-07-11 22:24:00,74.0,71.0,29.88,SW,216,2.0,4.0,91,0.00,,,0.57,,2013-07-12 03:24:00,
2013-07-11 22:56:00,74.0,72.0,29.90,WNW,283,1.0,4.0,92,0.00,,,0.57,,2013-07-12 03:56:00,
2013-07-11 23:01:00,74.0,72.0,29.90,WNW,292,1.0,4.0,93,0.00,,,0.57,,2013-07-12 04:01:00,
2013-07-11 23:11:00,74.0,72.0,29.90,WSW,238,0.0,3.0,92,0.00,,,0.57,,2013-07-12 04:11:00,
2013-07-11 23:22:00,74.0,72.0,29.90,WSW,238,0.0,3.0,92,0.00,,,0.57,,2013-07-12 04:22:00,
2013-07-11 23:32:00,74.0,72.0,29.91,SE,142,0.0,2.0,92,0.00,,,0.57,,2013-07-12 04:32:00,
2013-07-11 23:43:00,74.0,72.0,29.91,SE,143,0.0,1.0,93,0.00,,,0.57,,2013-07-12 04:43:00,
2013-07-11 23:53:00,74.0,72.0,29.91,SE,143,0.0,1.0,93,0.00,,,0.57,,2013-07-12 04:53:00,